Location: Allen Generating Plant
(35.0740°N, 90.1490°W)
Time: 08:09:30
(UTC+00:00)

Explorer 11/Cluster Stage 4 - Pass Details

Date: 12 November 2024
Orbit: 464 x 1202 km, 28.8° (Epoch: 06 December)

Event Time Altitude Azimuth Distance (km) Brightness Sun altitude
Exits shadow 10:05:38 18° 147° (SSE) 1,419 8.2 -30.2°
Drops below altitude 10° 10:07:41 10° 118° (ESE) 1,804 9.2 -29.8°
Sets 10:10:13 0° 100° (E) 2,608 10.5 -29.3°
